User: anonymous   Login
Location: Unspecified
(0.0000°N, 0.0000°E)
Time: 18:35:20
(UTC+00:00)
Language:

COSMOS 2517 (GEO-IK) - Orbit

View from above orbital plane
View from above orbital plane
View from above satellite
View from above satellite

Ground track
Ground track

The orbit data is extracted from the following two-line orbital elements,

1 41579U 16034A   18197.12629236 -.00000012  00000-0  28326-4 0  9996
2 41579  99.2666 207.8528 0001071  88.2243 271.9036 13.85913977106899
Epoch (UTC): 16 July 2018 03:01:51
Eccentricity: 0.0001071
inclination: 99.2666°
perigee height: 942 km
apogee height: 944 km
right ascension of ascending node: 207.8528°
argument of perigee: 88.2243°
revolutions per day: 13.85913977
mean anomaly at epoch: 271.9036°
orbit number at epoch: 10689

The dashed part of the orbit path shows where the satellite is in the earth's shadow,  

DLR